Regional Weather Roundup
Issued by NWS

Home | Current Version | Previous Version | Text Only | Print | Product List | Glossary Off
Versions: 1 2 3 4 5 6 7 8 9 10 11 12 13 14 15 16 17 18 19 20 21 22 23 24 25 26 27 28 29 30 31 32 33 34 35 36 37 38 39 40 41 42 43 44 45 46 47 48 49 50

967
ASUS43 KBIS 271002
RWRND

NORTH DAKOTA REGIONAL WEATHER ROUNDUP
NATIONAL WEATHER SERVICE BISMARCK ND
500 AM CDT FRI MAY 27 2016

NOTE: "FAIR" INDICATES FEW OR NO CLOUDS BELOW 12,000 FEET WITH NO
SIGNIFICANT WEATHER AND/OR OBSTRUCTIONS TO VISIBILITY.


NDZ001>003-009>011-017-271100-
NORTHWEST NORTH DAKOTA

CITY           SKY/WX    TMP DP  RH WIND       PRES   REMARKS
WILLISTON      MOCLDY    47  45  93 CALM      29.87S
MINOT          CLOUDY    56  54  93 CALM      29.83R FOG
MINOT AFB      CLOUDY    54  54 100 NW3       29.83R
$$

NDZ018>021-031>035-040>046-271100-
SOUTHWEST NORTH DAKOTA

CITY           SKY/WX    TMP DP  RH WIND       PRES   REMARKS
BISMARCK       PTCLDY    48  47  96 NW3       29.83S
DICKINSON      CLEAR     40  39  97 NW3       29.83S
GARRISON         N/A     52  50  93 NW7       29.83F
HETTINGER ARPT CLEAR     37  35  92 SW5       29.87S
$$

NDZ004>008-012>016-024-026-027-054-271100-
NORTHEAST NORTH DAKOTA

CITY           SKY/WX    TMP DP  RH WIND       PRES   REMARKS
GRAND FORKS    PTCLDY    52  50  93 N6        29.78S
GRND FRKS AFB  PTCLDY    50  50 100 N3        29.78F
DEVILS LAKE    CLEAR     49  48  97 CALM      29.82S
$$

NDZ022-023-025-028>030-036>039-047>053-271100-
SOUTHEAST NORTH DAKOTA

CITY           SKY/WX    TMP DP  RH WIND       PRES   REMARKS
FARGO          CLEAR     56  53  90 SE9       29.76S
JAMESTOWN      CLEAR     51  51 100 N14       29.77F FOG
$$





USA.gov is the U.S. government's official web portal to all federal, state and local government web resources and services.